Year,Month,Day,Hour,Minute,Value (Times are PST for temperature in C)
2010,08,23,00,00,13.90
2010,08,23,00,01,13.80
2010,08,23,00,02,13.80
2010,08,23,00,03,13.80
2010,08,23,00,04,13.80
2010,08,23,00,05,13.80
2010,08,23,00,06,13.80
2010,08,23,00,07,13.80
2010,08,23,00,08,13.80
2010,08,23,00,09,13.80
2010,08,23,00,10,13.80
2010,08,23,00,11,13.80
2010,08,23,00,12,13.80
2010,08,23,00,13,13.80
2010,08,23,00,14,13.80
2010,08,23,00,15,13.70
2010,08,23,00,16,13.70
2010,08,23,00,17,13.70
2010,08,23,00,18,13.70
2010,08,23,00,19,13.70
2010,08,23,00,20,13.70
2010,08,23,00,21,13.70
2010,08,23,00,22,13.70
2010,08,23,00,23,13.60
2010,08,23,00,24,13.60
2010,08,23,00,25,13.60
2010,08,23,00,26,13.60
2010,08,23,00,27,13.60
2010,08,23,00,28,13.60
2010,08,23,00,29,13.60
2010,08,23,00,30,13.60
2010,08,23,00,31,13.60
2010,08,23,00,32,13.60
2010,08,23,00,33,13.50
2010,08,23,00,34,13.50
2010,08,23,00,35,13.50
2010,08,23,00,36,13.50
2010,08,23,00,37,13.40
2010,08,23,00,38,13.40
2010,08,23,00,39,13.40
2010,08,23,00,40,13.40
2010,08,23,00,41,13.40
2010,08,23,00,42,13.40
2010,08,23,00,43,13.40
2010,08,23,00,44,13.40
2010,08,23,00,45,13.40
2010,08,23,00,46,13.40
2010,08,23,00,47,13.40
2010,08,23,00,48,13.40
2010,08,23,00,49,13.40
2010,08,23,00,50,13.30
2010,08,23,00,51,13.30
2010,08,23,00,52,13.30
2010,08,23,00,53,13.30
2010,08,23,00,54,13.30
2010,08,23,00,55,13.30
2010,08,23,00,56,13.30
2010,08,23,00,57,13.30
2010,08,23,00,58,13.20
2010,08,23,00,59,13.20
2010,08,23,01,00,13.20
2010,08,23,01,01,13.20
2010,08,23,01,02,13.20
2010,08,23,01,03,13.20
2010,08,23,01,04,13.10
2010,08,23,01,05,13.10
2010,08,23,01,06,13.10
2010,08,23,01,07,13.10
2010,08,23,01,08,13.10
2010,08,23,01,09,13.00
2010,08,23,01,10,13.00
2010,08,23,01,11,13.00
2010,08,23,01,12,12.90
2010,08,23,01,13,12.90
2010,08,23,01,14,12.90
2010,08,23,01,15,12.90
2010,08,23,01,16,12.90
2010,08,23,01,17,12.80
2010,08,23,01,18,12.80
2010,08,23,01,19,12.80
2010,08,23,01,20,12.80
2010,08,23,01,21,12.80
2010,08,23,01,22,12.80
2010,08,23,01,23,12.80
2010,08,23,01,24,12.70
2010,08,23,01,25,12.70
2010,08,23,01,26,12.70
2010,08,23,01,27,12.70
2010,08,23,01,28,12.70
2010,08,23,01,29,12.70
2010,08,23,01,30,12.60
2010,08,23,01,31,12.60
2010,08,23,01,32,12.60
2010,08,23,01,33,12.60
2010,08,23,01,34,12.60
2010,08,23,01,35,12.60
2010,08,23,01,36,12.60
2010,08,23,01,37,12.60
2010,08,23,01,38,12.60
2010,08,23,01,39,12.60
2010,08,23,01,40,12.60
2010,08,23,01,41,12.60
2010,08,23,01,42,12.50
2010,08,23,01,43,12.50
2010,08,23,01,44,12.50
2010,08,23,01,45,12.50
2010,08,23,01,46,12.50
2010,08,23,01,47,12.50
2010,08,23,01,48,12.40
2010,08,23,01,49,12.40
2010,08,23,01,50,12.40
2010,08,23,01,51,12.40
2010,08,23,01,52,12.40
2010,08,23,01,53,12.40
2010,08,23,01,54,12.40
2010,08,23,01,55,12.40
2010,08,23,01,56,12.40
2010,08,23,01,57,12.40
2010,08,23,01,58,12.40
2010,08,23,01,59,12.40
2010,08,23,02,00,12.40
2010,08,23,02,01,12.40
2010,08,23,02,02,12.40
2010,08,23,02,03,12.40
2010,08,23,02,04,12.40
2010,08,23,02,05,12.40
2010,08,23,02,06,12.40
2010,08,23,02,07,12.40
2010,08,23,02,08,12.40
2010,08,23,02,09,12.40
2010,08,23,02,10,12.40
2010,08,23,02,11,12.40
2010,08,23,02,12,12.30
2010,08,23,02,13,12.30
2010,08,23,02,14,12.30
2010,08,23,02,15,12.30
2010,08,23,02,16,12.30
2010,08,23,02,17,12.30
2010,08,23,02,18,12.30
2010,08,23,02,19,12.30
2010,08,23,02,20,12.30
2010,08,23,02,21,12.30
2010,08,23,02,22,12.30
2010,08,23,02,23,12.30
2010,08,23,02,24,12.30
2010,08,23,02,25,12.30
2010,08,23,02,26,12.30
2010,08,23,02,27,12.30
2010,08,23,02,28,12.20
2010,08,23,02,29,12.20
2010,08,23,02,30,12.20
2010,08,23,02,31,12.20
2010,08,23,02,32,12.20
2010,08,23,02,33,12.20
2010,08,23,02,34,12.20
2010,08,23,02,35,12.10
2010,08,23,02,36,12.10
2010,08,23,02,37,12.10
2010,08,23,02,38,12.10
2010,08,23,02,39,12.10
2010,08,23,02,40,12.10
2010,08,23,02,41,12.10
2010,08,23,02,42,12.10
2010,08,23,02,43,12.10
2010,08,23,02,44,12.00
2010,08,23,02,45,12.00
2010,08,23,02,46,12.00
2010,08,23,02,47,12.00
2010,08,23,02,48,12.00
2010,08,23,02,49,12.00
2010,08,23,02,50,11.90
2010,08,23,02,51,11.90
2010,08,23,02,52,11.90
2010,08,23,02,53,11.90
2010,08,23,02,54,11.90
2010,08,23,02,55,11.90
2010,08,23,02,56,11.90
2010,08,23,02,57,11.90
2010,08,23,02,58,11.90
2010,08,23,02,59,11.90
2010,08,23,03,00,11.90
2010,08,23,03,01,11.90
2010,08,23,03,02,11.90
2010,08,23,03,03,11.90
2010,08,23,03,04,11.80
2010,08,23,03,05,11.80
2010,08,23,03,06,11.80
2010,08,23,03,07,11.80
2010,08,23,03,08,11.80
2010,08,23,03,09,11.80
2010,08,23,03,10,11.80
2010,08,23,03,11,11.80
2010,08,23,03,12,11.80
2010,08,23,03,13,11.80
2010,08,23,03,14,11.80
2010,08,23,03,15,11.80
2010,08,23,03,16,11.80
2010,08,23,03,17,11.80
2010,08,23,03,18,11.80
2010,08,23,03,19,11.80
2010,08,23,03,20,11.80
2010,08,23,03,21,11.80
2010,08,23,03,22,11.80
2010,08,23,03,23,11.80
2010,08,23,03,24,11.80
2010,08,23,03,25,11.80
2010,08,23,03,26,11.80
2010,08,23,03,27,11.80
2010,08,23,03,28,11.80
2010,08,23,03,29,11.80
2010,08,23,03,30,11.70
2010,08,23,03,31,11.70
2010,08,23,03,32,11.70
2010,08,23,03,33,11.70
2010,08,23,03,34,11.70
2010,08,23,03,35,11.70
2010,08,23,03,36,11.70
2010,08,23,03,37,11.70
2010,08,23,03,38,11.70
2010,08,23,03,39,11.70
2010,08,23,03,40,11.70
2010,08,23,03,41,11.70
2010,08,23,03,42,11.70
2010,08,23,03,43,11.70
2010,08,23,03,44,11.70
2010,08,23,03,45,11.70
2010,08,23,03,46,11.60
2010,08,23,03,47,11.60
2010,08,23,03,48,11.60
2010,08,23,03,49,11.60
2010,08,23,03,50,11.60
2010,08,23,03,51,11.60
2010,08,23,03,52,11.60
2010,08,23,03,53,11.60
2010,08,23,03,54,11.60
2010,08,23,03,55,11.60
2010,08,23,03,56,11.60
2010,08,23,03,57,11.60
2010,08,23,03,58,11.60
2010,08,23,03,59,11.60
2010,08,23,04,00,11.60
2010,08,23,04,01,11.60
2010,08,23,04,02,11.60
2010,08,23,04,03,11.60
2010,08,23,04,04,11.60
2010,08,23,04,05,11.60
2010,08,23,04,06,11.60
2010,08,23,04,07,11.50
2010,08,23,04,08,11.50
2010,08,23,04,09,11.50
2010,08,23,04,10,11.50
2010,08,23,04,11,11.50
2010,08,23,04,12,11.50
2010,08,23,04,13,11.50
2010,08,23,04,14,11.50
2010,08,23,04,15,11.50
2010,08,23,04,16,11.50
2010,08,23,04,17,11.50
2010,08,23,04,18,11.40
2010,08,23,04,19,11.40
2010,08,23,04,20,11.40
2010,08,23,04,21,11.40
2010,08,23,04,22,11.40
2010,08,23,04,23,11.40
2010,08,23,04,24,11.40
2010,08,23,04,25,11.40
2010,08,23,04,26,11.40
2010,08,23,04,27,11.40
2010,08,23,04,28,11.40
2010,08,23,04,29,11.40
2010,08,23,04,30,11.40
2010,08,23,04,31,11.40
2010,08,23,04,32,11.30
2010,08,23,04,33,11.30
2010,08,23,04,34,11.30
2010,08,23,04,35,11.30
2010,08,23,04,36,11.30
2010,08,23,04,37,11.30
2010,08,23,04,38,11.30
2010,08,23,04,39,11.30
2010,08,23,04,40,11.30
2010,08,23,04,41,11.30
2010,08,23,04,42,11.30
2010,08,23,04,43,11.30
2010,08,23,04,44,11.30
2010,08,23,04,45,11.30
2010,08,23,04,46,11.20
2010,08,23,04,47,11.20
2010,08,23,04,48,11.20
2010,08,23,04,49,11.20
2010,08,23,04,50,11.20
2010,08,23,04,51,11.20
2010,08,23,04,52,11.20
2010,08,23,04,53,11.20
2010,08,23,04,54,11.20
2010,08,23,04,55,11.20
2010,08,23,04,56,11.20
2010,08,23,04,57,11.20
2010,08,23,04,58,11.20
2010,08,23,04,59,11.20
2010,08,23,05,00,11.20
2010,08,23,05,01,11.20
2010,08,23,05,02,11.20
2010,08,23,05,03,11.10
2010,08,23,05,04,11.10
2010,08,23,05,05,11.10
2010,08,23,05,06,11.10
2010,08,23,05,07,11.10
2010,08,23,05,08,11.10
2010,08,23,05,09,11.10
2010,08,23,05,10,11.10
2010,08,23,05,11,11.10
2010,08,23,05,12,11.10
2010,08,23,05,13,11.10
2010,08,23,05,14,11.00
2010,08,23,05,15,11.00
2010,08,23,05,16,11.00
2010,08,23,05,17,11.00
2010,08,23,05,18,10.90
2010,08,23,05,19,10.90
2010,08,23,05,20,10.90
2010,08,23,05,21,10.90
2010,08,23,05,22,10.80
2010,08,23,05,23,10.80
2010,08,23,05,24,10.80
2010,08,23,05,25,10.80
2010,08,23,05,26,10.70
2010,08,23,05,27,10.70
2010,08,23,05,28,10.70
2010,08,23,05,29,10.70
2010,08,23,05,30,10.60
2010,08,23,05,31,10.60
2010,08,23,05,32,10.60
2010,08,23,05,33,10.60
2010,08,23,05,34,10.60
2010,08,23,05,35,10.60
2010,08,23,05,36,10.50
2010,08,23,05,37,10.50
2010,08,23,05,38,10.50
2010,08,23,05,39,10.40
2010,08,23,05,40,10.40
2010,08,23,05,41,10.40
2010,08,23,05,42,10.40
2010,08,23,05,43,10.30
2010,08,23,05,44,10.30
2010,08,23,05,45,10.30
2010,08,23,05,46,10.20
2010,08,23,05,47,10.20
2010,08,23,05,48,10.20
2010,08,23,05,49,10.20
2010,08,23,05,50,10.10
2010,08,23,05,51,10.10
2010,08,23,05,52,10.10
2010,08,23,05,53,10.10
2010,08,23,05,54,10.10
2010,08,23,05,55,10.10
2010,08,23,05,56,10.00
2010,08,23,05,57,10.00
2010,08,23,05,58,10.00
2010,08,23,05,59,10.00
2010,08,23,06,00,10.00
2010,08,23,06,01,9.90
2010,08,23,06,02,9.90
2010,08,23,06,03,9.90
2010,08,23,06,04,9.90
2010,08,23,06,05,9.90
2010,08,23,06,06,9.90
2010,08,23,06,07,9.90
2010,08,23,06,08,9.90
2010,08,23,06,09,9.90
2010,08,23,06,10,9.90
2010,08,23,06,11,9.80
2010,08,23,06,12,9.80
2010,08,23,06,13,9.80
2010,08,23,06,14,9.80
2010,08,23,06,15,9.80
2010,08,23,06,16,9.80
2010,08,23,06,17,9.80
2010,08,23,06,18,9.80
2010,08,23,06,19,9.70
2010,08,23,06,20,9.70
2010,08,23,06,21,9.70
2010,08,23,06,22,9.60
2010,08,23,06,23,9.60
2010,08,23,06,24,9.60
2010,08,23,06,25,9.60
2010,08,23,06,26,9.60
2010,08,23,06,27,9.60
2010,08,23,06,28,9.50
2010,08,23,06,29,9.50
2010,08,23,06,30,9.50
2010,08,23,06,31,9.50
2010,08,23,06,32,9.50
2010,08,23,06,33,9.50
2010,08,23,06,34,9.50
2010,08,23,06,35,9.50
2010,08,23,06,36,9.50
2010,08,23,06,37,9.50
2010,08,23,06,38,9.40
2010,08,23,06,39,9.50
2010,08,23,06,40,9.40
2010,08,23,06,41,9.40
2010,08,23,06,42,9.50
2010,08,23,06,43,9.50
2010,08,23,06,44,9.50
2010,08,23,06,45,9.50
2010,08,23,06,46,9.50
2010,08,23,06,47,9.50
2010,08,23,06,48,9.50
2010,08,23,06,49,9.40
2010,08,23,06,50,9.40
2010,08,23,06,51,9.50
2010,08,23,06,52,9.50
2010,08,23,06,53,9.60
2010,08,23,06,54,9.60
2010,08,23,06,55,9.60
2010,08,23,06,56,9.70
2010,08,23,06,57,9.70
2010,08,23,06,58,9.70
2010,08,23,06,59,9.70
2010,08,23,07,00,9.70
2010,08,23,07,01,9.80
2010,08,23,07,02,9.80
2010,08,23,07,03,9.80
2010,08,23,07,04,9.80
2010,08,23,07,05,9.80
2010,08,23,07,06,9.80
2010,08,23,07,07,9.80
2010,08,23,07,08,9.90
2010,08,23,07,09,9.90
2010,08,23,07,10,9.90
2010,08,23,07,11,9.90
2010,08,23,07,12,10.00
2010,08,23,07,13,10.10
2010,08,23,07,14,10.10
2010,08,23,07,15,10.10
2010,08,23,07,16,10.20
2010,08,23,07,17,10.20
2010,08,23,07,18,10.20
2010,08,23,07,19,10.20
2010,08,23,07,20,10.20
2010,08,23,07,21,10.30
2010,08,23,07,22,10.30
2010,08,23,07,23,10.30
2010,08,23,07,24,10.40
2010,08,23,07,25,10.40
2010,08,23,07,26,10.40
2010,08,23,07,27,10.50
2010,08,23,07,28,10.50
2010,08,23,07,29,10.60
2010,08,23,07,30,10.60
2010,08,23,07,31,10.70
2010,08,23,07,32,10.70
2010,08,23,07,33,10.70
2010,08,23,07,34,10.80
2010,08,23,07,35,10.80
2010,08,23,07,36,10.80
2010,08,23,07,37,10.90
2010,08,23,07,38,10.90
2010,08,23,07,39,10.90
2010,08,23,07,40,11.00
2010,08,23,07,41,11.00
2010,08,23,07,42,11.00
2010,08,23,07,43,11.10
2010,08,23,07,44,11.10
2010,08,23,07,45,11.10
2010,08,23,07,46,11.20
2010,08,23,07,47,11.20
2010,08,23,07,48,11.20
2010,08,23,07,49,11.20
2010,08,23,07,50,11.30
2010,08,23,07,51,11.30
2010,08,23,07,52,11.30
2010,08,23,07,53,11.40
2010,08,23,07,54,11.40
2010,08,23,07,55,11.40
2010,08,23,07,56,11.40
2010,08,23,07,57,11.50
2010,08,23,07,58,11.50
2010,08,23,07,59,11.60
2010,08,23,08,00,11.60
2010,08,23,08,01,11.70
2010,08,23,08,02,11.80
2010,08,23,08,03,11.80
2010,08,23,08,04,11.90
2010,08,23,08,05,12.00
2010,08,23,08,06,12.10
2010,08,23,08,07,12.10
2010,08,23,08,08,12.10
2010,08,23,08,09,12.20
2010,08,23,08,10,12.20
2010,08,23,08,11,12.20
2010,08,23,08,12,12.30
2010,08,23,08,13,12.30
2010,08,23,08,14,12.40
2010,08,23,08,15,12.40
2010,08,23,08,16,12.50
2010,08,23,08,17,12.50
2010,08,23,08,18,12.50
2010,08,23,08,19,12.60
2010,08,23,08,20,12.60
2010,08,23,08,21,12.60
2010,08,23,08,22,12.70
2010,08,23,08,23,12.70
2010,08,23,08,24,12.70
2010,08,23,08,25,12.70
2010,08,23,08,26,12.70
2010,08,23,08,27,12.70
2010,08,23,08,28,12.80
2010,08,23,08,29,12.80
2010,08,23,08,30,12.90
2010,08,23,08,31,12.90
2010,08,23,08,32,13.00
2010,08,23,08,33,13.00
2010,08,23,08,34,13.10
2010,08,23,08,35,13.10
2010,08,23,08,36,13.10
2010,08,23,08,37,13.10
2010,08,23,08,38,13.20
2010,08,23,08,39,13.20
2010,08,23,08,40,13.30
2010,08,23,08,41,13.30
2010,08,23,08,42,13.30
2010,08,23,08,43,13.30
2010,08,23,08,44,13.40
2010,08,23,08,45,13.40
2010,08,23,08,46,13.40
2010,08,23,08,47,13.40
2010,08,23,08,48,13.50
2010,08,23,08,49,13.50
2010,08,23,08,50,13.60
2010,08,23,08,51,13.60
2010,08,23,08,52,13.70
2010,08,23,08,53,13.80
2010,08,23,08,54,13.70
2010,08,23,08,55,13.70
2010,08,23,08,56,13.70
2010,08,23,08,57,13.70
2010,08,23,08,58,13.70
2010,08,23,08,59,13.70
2010,08,23,09,00,13.80
2010,08,23,09,01,13.80
2010,08,23,09,02,13.80
2010,08,23,09,03,13.80
2010,08,23,09,04,13.80
2010,08,23,09,05,13.70
2010,08,23,09,06,13.70
2010,08,23,09,07,13.80
2010,08,23,09,08,13.80
2010,08,23,09,09,13.90
2010,08,23,09,10,14.00
2010,08,23,09,11,14.00
2010,08,23,09,12,14.10
2010,08,23,09,13,14.10
2010,08,23,09,14,14.10
2010,08,23,09,15,14.00
2010,08,23,09,16,14.10
2010,08,23,09,17,14.00
2010,08,23,09,18,14.00
2010,08,23,09,19,14.00
2010,08,23,09,20,13.90
2010,08,23,09,21,13.90
2010,08,23,09,22,13.90
2010,08,23,09,23,14.00
2010,08,23,09,24,14.00
2010,08,23,09,25,14.10
2010,08,23,09,26,14.10
2010,08,23,09,27,14.10
2010,08,23,09,28,14.10
2010,08,23,09,29,14.20
2010,08,23,09,30,14.20
2010,08,23,09,31,14.20
2010,08,23,09,32,14.20
2010,08,23,09,33,14.20
2010,08,23,09,34,14.30
2010,08,23,09,35,14.30
2010,08,23,09,36,14.30
2010,08,23,09,37,14.40
2010,08,23,09,38,14.40
2010,08,23,09,39,14.40
2010,08,23,09,40,14.40
2010,08,23,09,41,14.40
2010,08,23,09,42,14.40
2010,08,23,09,43,14.40
2010,08,23,09,44,14.30
2010,08,23,09,45,14.30
2010,08,23,09,46,14.30
2010,08,23,09,47,14.30
2010,08,23,09,48,14.30
2010,08,23,09,49,14.30
2010,08,23,09,50,14.30
2010,08,23,09,51,14.30
2010,08,23,09,52,14.30
2010,08,23,09,53,14.30
2010,08,23,09,54,14.30
2010,08,23,09,55,14.30
2010,08,23,09,56,14.30
2010,08,23,09,57,14.30
2010,08,23,09,58,14.30
2010,08,23,09,59,14.40
2010,08,23,10,00,14.50
2010,08,23,10,01,14.50
2010,08,23,10,02,14.60
2010,08,23,10,03,14.60
2010,08,23,10,04,14.70
2010,08,23,10,05,14.60
2010,08,23,10,06,14.70
2010,08,23,10,07,14.70
2010,08,23,10,08,14.70
2010,08,23,10,09,14.70
2010,08,23,10,10,14.80
2010,08,23,10,11,14.70
2010,08,23,10,12,14.70
2010,08,23,10,13,14.70
2010,08,23,10,14,14.70
2010,08,23,10,15,14.70
2010,08,23,10,16,14.70
2010,08,23,10,17,14.80
2010,08,23,10,18,14.80
2010,08,23,10,19,14.90
2010,08,23,10,20,15.00
2010,08,23,10,21,15.00
2010,08,23,10,22,15.00
2010,08,23,10,23,15.00
2010,08,23,10,24,15.00
2010,08,23,10,25,15.00
2010,08,23,10,26,14.90
2010,08,23,10,27,14.80
2010,08,23,10,28,14.80
2010,08,23,10,29,14.70
2010,08,23,10,30,14.60
2010,08,23,10,31,14.50
2010,08,23,10,32,14.40
2010,08,23,10,33,14.40
2010,08,23,10,34,14.40
2010,08,23,10,35,14.30
2010,08,23,10,36,14.30
2010,08,23,10,37,14.30
2010,08,23,10,38,14.20
2010,08,23,10,39,14.20
2010,08,23,10,40,14.20
2010,08,23,10,41,14.20
2010,08,23,10,42,14.20
2010,08,23,10,43,14.20
2010,08,23,10,44,14.20
2010,08,23,10,45,14.20
2010,08,23,10,46,14.20
2010,08,23,10,47,14.20
2010,08,23,10,48,14.20
2010,08,23,10,49,14.30
2010,08,23,10,50,14.30
2010,08,23,10,51,14.30
2010,08,23,10,52,14.40
2010,08,23,10,53,14.40
2010,08,23,10,54,14.50
2010,08,23,10,55,14.60
2010,08,23,10,56,14.60
2010,08,23,10,57,14.70
2010,08,23,10,58,14.60
2010,08,23,10,59,14.60
2010,08,23,11,00,14.70
2010,08,23,11,01,14.60
2010,08,23,11,02,14.50
2010,08,23,11,03,14.50
2010,08,23,11,04,14.40
2010,08,23,11,05,14.30
2010,08,23,11,06,14.20
2010,08,23,11,07,14.10
2010,08,23,11,08,14.00
2010,08,23,11,09,14.00
2010,08,23,11,10,13.90
2010,08,23,11,11,13.80
2010,08,23,11,12,13.70
2010,08,23,11,13,13.70
2010,08,23,11,14,13.70
2010,08,23,11,15,13.70
2010,08,23,11,16,13.70
2010,08,23,11,17,13.70
2010,08,23,11,18,13.70
2010,08,23,11,19,13.70
2010,08,23,11,20,13.70
2010,08,23,11,21,13.70
2010,08,23,11,22,13.70
2010,08,23,11,23,13.70
2010,08,23,11,24,13.80
2010,08,23,11,25,13.80
2010,08,23,11,26,13.80
2010,08,23,11,27,13.80
2010,08,23,11,28,13.80
2010,08,23,11,29,13.70
2010,08,23,11,30,13.70
2010,08,23,11,31,13.70
2010,08,23,11,32,13.70
2010,08,23,11,33,13.60
2010,08,23,11,34,13.60
2010,08,23,11,35,13.60
2010,08,23,11,36,13.60
2010,08,23,11,37,13.60
2010,08,23,11,38,13.70
2010,08,23,11,39,13.70
2010,08,23,11,40,13.60
2010,08,23,11,41,13.60
2010,08,23,11,42,13.60
2010,08,23,11,43,13.60
2010,08,23,11,44,13.50
2010,08,23,11,45,13.50
2010,08,23,11,46,13.60
2010,08,23,11,47,13.60
2010,08,23,11,48,13.60
2010,08,23,11,49,13.70
2010,08,23,11,50,13.70
2010,08,23,11,51,13.70
2010,08,23,11,52,13.80
2010,08,23,11,53,13.80
2010,08,23,11,54,13.90
2010,08,23,11,55,14.00
2010,08,23,11,56,14.10
2010,08,23,11,57,14.10
2010,08,23,11,58,14.10
2010,08,23,11,59,14.10
2010,08,23,12,00,14.10
2010,08,23,12,01,14.10
2010,08,23,12,02,14.10
2010,08,23,12,03,14.10
2010,08,23,12,04,14.00
2010,08,23,12,05,14.00
2010,08,23,12,06,13.90
2010,08,23,12,07,14.00
2010,08,23,12,08,13.90
2010,08,23,12,09,13.90
2010,08,23,12,10,13.80
2010,08,23,12,11,13.80
2010,08,23,12,12,13.90
2010,08,23,12,13,13.90
2010,08,23,12,14,13.90
2010,08,23,12,15,13.80
2010,08,23,12,16,13.80
2010,08,23,12,17,13.90
2010,08,23,12,18,13.80
2010,08,23,12,19,13.70
2010,08,23,12,20,13.70
2010,08,23,12,21,13.80
2010,08,23,12,22,13.80
2010,08,23,12,23,13.80
2010,08,23,12,24,13.70
2010,08,23,12,25,13.80
2010,08,23,12,26,13.80
2010,08,23,12,27,13.80
2010,08,23,12,28,13.80
2010,08,23,12,29,13.80
2010,08,23,12,30,13.80
2010,08,23,12,31,13.80
2010,08,23,12,32,13.90
2010,08,23,12,33,14.00
2010,08,23,12,34,14.10
2010,08,23,12,35,14.20
2010,08,23,12,36,14.40
2010,08,23,12,37,14.50
2010,08,23,12,38,14.70
2010,08,23,12,39,14.90
2010,08,23,12,40,15.00
2010,08,23,12,41,15.00
2010,08,23,12,42,15.20
2010,08,23,12,43,15.30
2010,08,23,12,44,15.40
2010,08,23,12,45,15.50
2010,08,23,12,46,15.50
2010,08,23,12,47,15.60
2010,08,23,12,48,15.70
2010,08,23,12,49,15.70
2010,08,23,12,50,15.70
2010,08,23,12,51,15.80
2010,08,23,12,52,15.90
2010,08,23,12,53,15.90
2010,08,23,12,54,15.90
2010,08,23,12,55,15.90
2010,08,23,12,56,16.00
2010,08,23,12,57,16.00
2010,08,23,12,58,16.00
2010,08,23,12,59,16.10
2010,08,23,13,00,16.10
2010,08,23,13,01,16.20
2010,08,23,13,02,16.20
2010,08,23,13,03,16.20
2010,08,23,13,04,16.30
2010,08,23,13,05,16.40
2010,08,23,13,06,16.40
2010,08,23,13,07,16.50
2010,08,23,13,08,16.50
2010,08,23,13,09,16.50
2010,08,23,13,10,16.40
2010,08,23,13,11,16.30
2010,08,23,13,12,16.20
2010,08,23,13,13,16.10
2010,08,23,13,14,16.00
2010,08,23,13,15,15.90
2010,08,23,13,16,15.80
2010,08,23,13,17,15.60
2010,08,23,13,18,15.50
2010,08,23,13,19,15.40
2010,08,23,13,20,15.40
2010,08,23,13,21,15.40
2010,08,23,13,22,15.40
2010,08,23,13,23,15.50
2010,08,23,13,24,15.40
2010,08,23,13,25,15.20
2010,08,23,13,26,15.00
2010,08,23,13,27,15.00
2010,08,23,13,28,15.00
2010,08,23,13,29,14.90
2010,08,23,13,30,14.80
2010,08,23,13,31,14.70
2010,08,23,13,32,14.50
2010,08,23,13,33,14.40
2010,08,23,13,34,14.30
2010,08,23,13,35,14.20
2010,08,23,13,36,14.10
2010,08,23,13,37,14.00
2010,08,23,13,38,14.00
2010,08,23,13,39,14.00
2010,08,23,13,40,14.10
2010,08,23,13,41,14.10
2010,08,23,13,42,14.20
2010,08,23,13,43,14.30
2010,08,23,13,44,14.30
2010,08,23,13,45,14.40
2010,08,23,13,46,14.30
2010,08,23,13,47,14.30
2010,08,23,13,48,14.30
2010,08,23,13,49,14.20
2010,08,23,13,50,14.20
2010,08,23,13,51,14.20
2010,08,23,13,52,14.30
2010,08,23,13,53,14.30
2010,08,23,13,54,14.40
2010,08,23,13,55,14.50
2010,08,23,13,56,14.60
2010,08,23,13,57,14.70
2010,08,23,13,58,14.90
2010,08,23,13,59,15.00
2010,08,23,14,00,15.00
2010,08,23,14,01,15.00
2010,08,23,14,02,15.00
2010,08,23,14,03,15.00
2010,08,23,14,04,15.00
2010,08,23,14,05,15.00
2010,08,23,14,06,14.90
2010,08,23,14,07,15.00
2010,08,23,14,08,15.00
2010,08,23,14,09,15.00
2010,08,23,14,10,15.00
2010,08,23,14,11,15.00
2010,08,23,14,12,15.00
2010,08,23,14,13,14.90
2010,08,23,14,14,14.80
2010,08,23,14,15,14.80
2010,08,23,14,16,14.70
2010,08,23,14,17,14.70
2010,08,23,14,18,14.70
2010,08,23,14,19,14.80
2010,08,23,14,20,14.90
2010,08,23,14,21,15.00
2010,08,23,14,22,15.00
2010,08,23,14,23,15.00
2010,08,23,14,24,15.10
2010,08,23,14,25,15.20
2010,08,23,14,26,15.30
2010,08,23,14,27,15.40
2010,08,23,14,28,15.40
2010,08,23,14,29,15.40
2010,08,23,14,30,15.50
2010,08,23,14,31,15.60
2010,08,23,14,32,15.60
2010,08,23,14,33,15.60
2010,08,23,14,34,15.70
2010,08,23,14,35,15.80
2010,08,23,14,36,15.80
2010,08,23,14,37,15.80
2010,08,23,14,38,15.80
2010,08,23,14,39,15.90
2010,08,23,14,40,16.00
2010,08,23,14,41,16.10
2010,08,23,14,42,16.20
2010,08,23,14,43,16.20
2010,08,23,14,44,16.20
2010,08,23,14,45,16.30
2010,08,23,14,46,16.40
2010,08,23,14,47,16.40
2010,08,23,14,48,16.40
2010,08,23,14,49,16.30
2010,08,23,14,50,16.20
2010,08,23,14,51,16.10
2010,08,23,14,52,16.10
2010,08,23,14,53,16.10
2010,08,23,14,54,16.10
2010,08,23,14,55,16.20
2010,08,23,14,56,16.20
2010,08,23,14,57,16.20
2010,08,23,14,58,16.30
2010,08,23,14,59,16.40
2010,08,23,15,00,16.50
2010,08,23,15,01,16.50
2010,08,23,15,02,16.60
2010,08,23,15,03,16.70
2010,08,23,15,04,16.80
2010,08,23,15,05,16.80
2010,08,23,15,06,16.80
2010,08,23,15,07,16.90
2010,08,23,15,08,16.90
2010,08,23,15,09,16.90
2010,08,23,15,10,17.00
2010,08,23,15,11,17.10
2010,08,23,15,12,17.20
2010,08,23,15,13,17.30
2010,08,23,15,14,17.40
2010,08,23,15,15,17.40
2010,08,23,15,16,17.50
2010,08,23,15,17,17.50
2010,08,23,15,18,17.40
2010,08,23,15,19,17.30
2010,08,23,15,20,17.20
2010,08,23,15,21,17.00
2010,08,23,15,22,16.90
2010,08,23,15,23,16.80
2010,08,23,15,24,16.80
2010,08,23,15,25,16.90
2010,08,23,15,26,16.90
2010,08,23,15,27,16.90
2010,08,23,15,28,16.80
2010,08,23,15,29,16.70
2010,08,23,15,30,16.70
2010,08,23,15,31,16.70
2010,08,23,15,32,16.60
2010,08,23,15,33,16.50
2010,08,23,15,34,16.50
2010,08,23,15,35,16.40
2010,08,23,15,36,16.30
2010,08,23,15,37,16.30
2010,08,23,15,38,16.30
2010,08,23,15,39,16.20
2010,08,23,15,40,16.10
2010,08,23,15,41,16.00
2010,08,23,15,42,16.00
2010,08,23,15,43,16.00
2010,08,23,15,44,16.10
2010,08,23,15,45,16.00
2010,08,23,15,46,16.00
2010,08,23,15,47,15.90
2010,08,23,15,48,16.00
2010,08,23,15,49,16.00
2010,08,23,15,50,16.10
2010,08,23,15,51,16.20
2010,08,23,15,52,16.30
2010,08,23,15,53,16.40
2010,08,23,15,54,16.50
2010,08,23,15,55,16.50
2010,08,23,15,56,16.50
2010,08,23,15,57,16.50
2010,08,23,15,58,16.50
2010,08,23,15,59,16.60
2010,08,23,16,00,16.70
2010,08,23,16,01,16.90
2010,08,23,16,02,17.00
2010,08,23,16,03,17.20
2010,08,23,16,04,17.30
2010,08,23,16,05,17.30
2010,08,23,16,06,17.40
2010,08,23,16,07,17.50
2010,08,23,16,08,17.70
2010,08,23,16,09,17.80
2010,08,23,16,10,17.90
2010,08,23,16,11,18.00
2010,08,23,16,12,18.00
2010,08,23,16,13,18.10
2010,08,23,16,14,18.20
2010,08,23,16,15,18.30
2010,08,23,16,16,18.30
2010,08,23,16,17,18.40
2010,08,23,16,18,18.40
2010,08,23,16,19,18.40
2010,08,23,16,20,18.50
2010,08,23,16,21,18.50
2010,08,23,16,22,18.50
2010,08,23,16,23,18.40
2010,08,23,16,24,18.40
2010,08,23,16,25,18.30
2010,08,23,16,26,18.30
2010,08,23,16,27,18.20
2010,08,23,16,28,18.20
2010,08,23,16,29,18.20
2010,08,23,16,30,18.10
2010,08,23,16,31,17.90
2010,08,23,16,32,17.90
2010,08,23,16,33,17.80
2010,08,23,16,34,17.80
2010,08,23,16,35,17.70
2010,08,23,16,36,17.70
2010,08,23,16,37,17.70
2010,08,23,16,38,17.70
2010,08,23,16,39,17.60
2010,08,23,16,40,17.60
2010,08,23,16,41,17.60
2010,08,23,16,42,17.60
2010,08,23,16,43,17.60
2010,08,23,16,44,17.60
2010,08,23,16,45,17.60
2010,08,23,16,46,17.60
2010,08,23,16,47,17.60
2010,08,23,16,48,17.60
2010,08,23,16,49,17.60
2010,08,23,16,50,17.60
2010,08,23,16,51,17.60
2010,08,23,16,52,17.60
2010,08,23,16,53,17.70
2010,08,23,16,54,17.70
2010,08,23,16,55,17.70
2010,08,23,16,56,17.70
2010,08,23,16,57,17.60
2010,08,23,16,58,17.60
2010,08,23,16,59,17.60
2010,08,23,17,00,17.60
2010,08,23,17,01,17.60
2010,08,23,17,02,17.60
2010,08,23,17,03,17.70
2010,08,23,17,04,17.70
2010,08,23,17,05,17.70
2010,08,23,17,06,17.70
2010,08,23,17,07,17.70
2010,08,23,17,08,17.80
2010,08,23,17,09,17.90
2010,08,23,17,10,17.90
2010,08,23,17,11,18.00
2010,08,23,17,12,18.10
2010,08,23,17,13,18.10
2010,08,23,17,14,18.10
2010,08,23,17,15,18.20
2010,08,23,17,16,18.20
2010,08,23,17,17,18.20
2010,08,23,17,18,18.20
2010,08,23,17,19,18.30
2010,08,23,17,20,18.30
2010,08,23,17,21,18.30
2010,08,23,17,22,18.30